Wind_Speed
9 9 4 2 2 0 0 0 2 2 3 2 8 3 9 6 2 1 12 16 17 15 12 11 9 8 8 8 7 6 5 5 5 5 4 4 4 4 5 4 4 4 4 5 5 4 4 5 5
9 7 1 2 1 1 1 1 4 1 4 13 9 6 4 4 5 11 11 15 14 13 12 11 10 10 9 8 6 5 4 4 3 4 4 2 2 3 3 6 6 5 6 6 6 6 6 6 7
9 3 1 3 2 2 1 2 3 8 5 6 5 5 4 7 11 14 14 17 14 14 11 9 9 11 10 8 7 6 6 5 5 5 4 4 4 5 6 6 7 7 7 8 8 8 8 8 8
5 1 4 1 3 2 2 2 9 9 5 4 6 7 5 9 12 13 17 17 14 12 10 11 12 11 10 8 7 7 6 6 5 5 5 6 7 8 8 8 8 9 9 10 10 10 11 10 10
3 2 2 0 2 3 2 2 10 4 5 4 3 5 4 11 11 18 18 17 14 11 9 9 12 11 9 7 6 5 3 4 3 4 4 5 6 8 9 9 10 11 11 12 12 13 13 13 13
2 2 1 2 2 3 2 4 5 2 5 6 4 9 5 11 16 19 17 16 13 10 9 9 9 9 7 6 4 3 2 2 2 3 4 4 5 7 7 8 10 11 12 13 13 13 14 15 16
4 2 1 1 2 3 1 3 4 2 4 3 8 6 6 14 18 18 16 14 11 9 8 8 8 7 6 5 4 3 2 3 3 3 4 5 7 8 10 10 11 12 12 12 12 13 14 14 15
3 3 2 2 1 0 1 3 2 3 3 5 6 3 5 20 21 18 16 14 11 10 9 10 9 7 6 4 5 5 5 5 4 5 5 6 8 9 11 13 13 14 15 15 15 15 15 15 16
2 2 2 2 2 2 4 3 4 3 4 7 8 4 5 25 23 20 18 15 13 12 11 9 8 7 5 4 3 4 4 5 5 5 6 7 8 9 10 12 13 14 15 16 16 16 16 17 18
2 2 4 1 2 3 1 3 8 4 5 6 8 10 8 26 25 22 20 16 15 13 10 9 7 5 4 4 4 4 4 4 4 5 6 7 7 8 9 11 12 13 13 14 15 15 15 16 17
0 3 5 4 3 1 2 2 3 5 6 8 8 14 18 29 25 22 19 16 14 11 8 7 6 6 7 7 6 5 4 4 4 5 5 5 6 8 9 10 10 11 12 13 13 12 13 13 14
5 2 3 2 1 0 3 4 3 8 5 5 11 13 22 29 26 22 19 16 12 9 6 6 6 7 7 6 6 4 3 3 4 5 6 6 7 7 8 8 9 10 11 10 11 11 12 12 13
2 4 5 6 13 7 5 7 6 12 16 10 9 19 26 28 25 22 18 15 11 8 6 5 5 6 6 6 5 4 3 3 4 5 6 7 8 9 10 11 12 13 13 13 12 12 12 11 11
6 8 12 9 7 5 6 3 2 7 11 11 15 21 26 27 26 24 20 16 12 8 5 4 5 6 6 5 5 5 4 4 5 6 7 8 9 10 11 12 12 13 13 14 14 14 14 13 13
6 6 7 1 3 2 8 5 8 7 11 16 20 22 24 24 23 20 18 15 11 8 5 4 4 4 5 5 5 5 5 5 5 7 8 10 10 11 11 12 13 14 14 15 14 13 13 13 12
3 1 2 2 3 3 3 5 1 6 15 13 14 18 21 23 22 20 18 16 13 9 5 4 4 4 5 6 6 6 5 6 8 9 11 12 13 13 14 14 14 14 15 16 16 15 14 13 13
1 4 3 5 2 1 3 5 4 2 14 15 18 20 21 23 23 22 20 16 12 9 6 5 4 5 6 6 6 5 6 7 8 9 10 11 12 13 13 14 14 14 14 15 15 15 16 15 13
3 4 3 6 1 3 3 11 9 5 15 17 19 21 23 25 26 24 22 18 14 9 6 4 4 5 5 5 5 6 6 7 8 8 9 10 11 12 12 12 12 13 13 14 14 15 16 17 16
2 4 10 7 8 5 9 9 10 6 10 14 19 21 25 28 27 26 24 20 15 11 7 6 5 5 5 5 6 6 7 7 8 8 9 10 10 11 11 11 12 12 13 15 16 17 17 17 15
6 10 12 10 9 7 9 12 11 8 8 20 22 23 27 27 28 28 26 22 17 12 10 9 8 7 7 7 8 8 8 7 7 7 9 10 10 11 12 12 12 12 12 13 14 16 16 16 16
11 9 11 12 8 5 6 14 9 6 7 3 14 21 26 32 32 31 29 25 20 15 13 11 10 8 8 8 8 8 7 7 8 8 9 10 11 12 12 12 13 13 15 16 16 16 16 15 14
16 12 14 12 6 9 1 9 4 4 5 3 8 15 23 28 29 30 31 28 21 17 16 13 10 8 7 7 7 7 8 7 6 5 6 7 8 9 10 12 12 13 13 14 15 15 15 14 13
5 5 8 6 7 2 5 7 2 2 7 4 4 3 14 20 26 29 31 26 22 20 18 14 10 6 6 6 7 6 6 5 4 3 5 6 7 8 9 11 12 12 13 14 13 13 13 13 12
1 1 4 3 1 7 11 11 9 3 2 4 1 3 8 17 23 27 28 27 25 23 20 15 9 8 7 5 5 5 4 3 2 3 3 4 5 7 8 9 9 10 11 12 12 13 13 13 13
8 4 4 4 4 7 2 7 12 3 3 1 4 3 5 13 19 24 31 31 28 26 20 14 10 9 7 5 4 3 3 2 2 2 2 4 5 6 6 7 9 10 11 12 12 13 13 13 13
7 15 7 5 4 2 1 5 1 2 1 2 2 4 7 12 16 21 30 31 30 26 19 15 12 8 6 5 5 5 4 3 2 2 2 3 4 5 7 7 9 10 11 12 13 13 13 14 14
2 8 13 13 12 9 10 9 7 3 6 4 4 7 12 14 17 22 30 32 31 26 20 16 12 9 8 7 6 5 4 3 2 1 3 3 4 5 6 8 9 11 12 13 14 15 16 16 16
6 3 2 3 5 10 6 5 7 4 6 7 7 13 14 15 18 22 30 33 31 25 22 17 13 9 8 9 8 6 5 4 1 2 3 3 4 6 9 10 12 12 13 14 15 16 16 16 17
2 3 1 3 3 2 3 4 3 3 6 7 9 14 15 17 20 25 30 31 28 26 23 19 16 13 11 9 9 8 7 4 2 3 4 4 7 9 11 11 12 13 14 14 15 16 16 16 16
2 1 1 3 7 4 1 8 3 3 4 5 8 10 14 16 19 23 28 31 30 29 27 22 18 13 12 12 11 10 8 5 4 5 6 8 9 10 11 12 12 12 12 13 13 14 15 15 16
Wind_Direction
324 337 323 192 224 317 6 233 258 202 177 323 142 150 154 71 145 152 148 169 172 172 174 166 157 163 166 168 164 167 171 173 181 188 193 193 199 200 205 213 231 244 255 258 267 275 287 295 298
323 330 265 121 231 192 137 275 254 168 131 123 95 93 79 98 84 128 140 161 167 165 166 170 171 180 186 184 183 190 192 199 214 221 217 208 211 232 231 234 236 245 252 260 262 270 276 282 287
329 336 220 87 122 178 235 351 155 119 152 168 109 80 88 117 130 142 144 159 165 176 172 179 187 195 192 191 197 203 212 219 226 236 244 246 245 249 270 275 271 269 265 262 261 263 265 268 275
340 319 56 222 205 203 243 339 155 143 112 152 130 87 94 134 149 147 148 152 164 170 179 207 224 210 200 199 206 216 224 233 238 253 252 261 268 274 273 276 275 274 276 275 274 272 268 263 262
347 56 64 313 279 268 272 255 167 139 114 113 145 134 103 150 157 154 156 160 166 173 188 205 218 204 209 208 213 216 220 237 252 268 276 282 285 289 292 292 291 290 291 289 285 281 274 267 264
78 82 132 232 259 293 280 186 187 136 138 156 119 131 133 165 162 162 164 165 162 172 197 217 187 195 208 205 206 208 209 244 261 263 268 274 281 282 287 293 295 296 297 295 291 288 284 276 267
109 102 199 217 294 314 320 110 235 118 120 174 158 133 149 171 172 164 166 167 168 189 213 190 182 189 201 208 213 215 230 233 236 249 267 278 284 293 297 295 293 293 293 291 291 289 287 284 279
112 98 143 218 272 140 143 109 108 46 171 171 164 180 178 183 176 176 174 172 181 198 202 197 192 193 196 201 213 215 213 217 240 263 276 287 297 303 304 304 303 301 299 297 294 288 283 282 281
118 96 207 187 179 336 161 147 150 169 159 182 203 224 243 186 176 177 181 184 192 196 201 200 201 206 205 212 234 237 244 258 279 299 309 308 308 309 308 306 305 304 304 301 299 299 294 287 281
104 150 196 241 313 315 66 193 161 163 168 228 229 228 198 181 179 181 180 184 193 195 191 196 204 218 243 262 271 270 272 284 303 318 324 329 328 325 320 317 316 315 314 312 312 310 307 302 294
261 190 185 171 167 271 340 111 172 172 211 229 221 200 181 181 179 181 178 183 189 187 187 202 226 246 255 262 267 274 293 324 340 341 332 327 328 329 328 327 327 325 324 321 320 319 316 311 307
302 229 196 208 157 352 181 165 198 211 222 278 241 212 179 180 179 181 185 184 184 182 193 215 236 251 261 267 273 281 290 295 310 323 335 338 334 329 324 324 324 323 321 323 323 323 323 321 316
252 340 307 299 298 282 182 206 210 227 234 262 228 190 183 180 179 180 185 182 183 185 193 217 242 252 257 259 262 268 277 302 326 335 333 333 332 331 333 335 333 332 330 329 328 327 326 323 318
312 293 288 289 271 241 207 205 218 245 220 211 198 187 183 183 182 182 184 189 192 196 211 243 261 267 272 276 274 276 292 317 332 335 337 339 337 336 334 333 333 332 331 331 332 330 327 323 320
293 307 320 353 308 229 181 229 232 258 203 192 189 186 184 186 188 192 191 193 198 205 225 253 267 272 272 272 277 290 306 311 320 331 338 339 340 339 337 336 334 333 334 336 333 331 328 326 321
306 335 285 178 319 338 238 263 77 242 198 189 187 183 187 189 193 196 199 201 201 208 222 240 248 252 256 261 266 271 288 315 327 333 339 341 341 339 337 336 335 337 338 337 335 334 336 334 333
55 258 240 304 18 78 228 255 185 235 190 188 192 193 194 195 198 201 203 204 202 199 201 209 211 223 231 240 253 277 299 309 321 331 334 336 335 334 334 335 336 336 336 336 340 342 341 343 345
230 230 234 249 231 335 258 256 276 256 200 200 196 196 198 201 203 203 203 201 200 193 196 207 221 225 232 249 260 270 284 298 311 322 329 334 335 336 337 338 339 340 341 342 343 344 345 346 347
191 244 259 262 262 280 257 246 256 232 208 201 203 200 202 204 202 202 201 200 195 190 196 204 216 229 240 249 254 267 279 292 306 318 329 333 338 339 342 343 344 345 348 349 347 345 343 342 348
260 277 277 284 271 215 265 251 253 204 222 216 205 201 201 197 197 197 198 197 193 191 198 207 215 223 229 236 247 256 260 269 284 310 329 336 340 342 345 348 351 352 352 350 347 347 350 350 353
249 249 257 266 304 264 278 269 239 219 232 231 211 215 208 206 201 200 199 197 189 190 205 210 215 222 229 238 245 254 269 290 303 321 332 334 341 347 349 349 352 353 352 350 350 353 356 3 5
274 226 243 249 256 271 316 288 246 224 213 191 191 201 210 207 207 203 198 192 184 195 208 207 210 217 226 234 236 245 256 271 286 296 315 339 342 344 350 352 353 353 355 355 357 359 0 9 16
256 301 255 236 227 277 237 269 271 246 217 169 122 217 213 206 205 200 196 188 187 200 209 205 204 209 230 224 223 234 246 241 258 314 339 338 342 348 351 352 356 357 360 1 3 4 9 15 20
69 53 34 42 55 255 233 227 277 244 259 150 145 353 200 202 201 204 194 186 192 203 206 201 199 209 210 201 208 221 243 272 320 337 328 334 350 359 359 358 1 8 9 10 12 15 19 26 31
260 282 279 241 204 257 349 226 266 225 198 289 313 293 182 190 198 198 189 189 196 205 199 194 201 207 194 195 216 236 257 282 299 316 334 8 13 11 16 22 19 21 25 24 27 26 28 33 35
240 226 231 249 232 313 195 231 241 229 198 231 283 182 185 191 198 198 195 194 201 203 197 201 204 195 194 210 222 224 232 250 268 305 15 39 34 33 38 38 40 41 40 37 34 33 35 37 38
163 218 245 254 262 272 261 266 267 217 254 236 212 195 198 197 199 197 196 201 205 203 202 205 200 200 206 213 220 228 229 236 265 23 59 65 60 61 62 61 59 56 51 47 45 46 47 45 44
215 156 158 187 244 248 245 254 243 244 256 230 230 219 211 205 203 200 202 204 207 205 204 202 201 204 214 215 216 221 230 235 241 88 89 90 89 88 82 74 66 63 61 58 54 53 52 50 49
208 202 160 122 47 237 293 260 231 301 322 265 254 234 220 214 208 206 207 209 209 208 208 207 206 210 209 212 219 221 224 221 184 138 133 120 109 99 91 84 79 73 67 64 59 56 53 51 49
338 24 3 262 228 178 147 268 233 283 292 290 282 264 241 231 220 215 211 211 209 210 210 209 209 208 213 217 217 218 220 201 176 167 149 126 120 109 102 92 83 78 73 67 62 57 54 49 45
Height
1508 1507 1506 1506 1511 1510 1510 1507 1505 1504 1505 1506 1507 1506 1508 1515 1514 1520 1523 1524 1528 1531 1533 1536 1538 1539 1540 1540 1541 1541 1541 1542 1542 1542 1542 1542 1542 1541 1541 1541 1541 1541 1541 1542 1541 1541 1541 1540 1540
1507 1505 1505 1504 1509 1509 1507 1505 1503 1504 1507 1507 1508 1510 1510 1516 1518 1520 1523 1526 1528 1530 1533 1534 1536 1537 1539 1539 1541 1541 1541 1541 1541 1542 1541 1541 1542 1541 1540 1540 1540 1540 1540 1540 1540 1540 1540 1539 1539
1505 1504 1505 1505 1514 1507 1507 1503 1503 1506 1507 1507 1509 1511 1513 1517 1518 1520 1522 1526 1529 1530 1532 1533 1535 1536 1537 1539 1539 1540 1540 1540 1540 1541 1542 1541 1541 1540 1540 1539 1539 1539 1539 1539 1539 1538 1538 1538 1538
1504 1505 1506 1505 1507 1505 1505 1503 1504 1505 1507 1507 1508 1512 1515 1516 1518 1519 1522 1525 1529 1530 1531 1533 1535 1536 1537 1538 1538 1539 1540 1540 1540 1540 1540 1539 1540 1540 1540 1539 1538 1538 1537 1537 1537 1537 1537 1536 1536
1503 1504 1507 1509 1509 1506 1504 1503 1504 1503 1505 1507 1508 1512 1515 1516 1518 1519 1521 1524 1527 1529 1531 1532 1533 1536 1536 1537 1537 1538 1539 1540 1539 1540 1540 1540 1539 1540 1539 1539 1537 1537 1536 1536 1535 1535 1535 1535 1535
1503 1505 1509 1508 1509 1505 1503 1503 1504 1504 1505 1507 1509 1511 1515 1515 1517 1518 1522 1524 1526 1528 1530 1532 1533 1534 1535 1535 1536 1537 1538 1538 1538 1539 1539 1538 1537 1537 1537 1536 1535 1535 1534 1534 1534 1533 1533 1532 1532
1502 1505 1509 1512 1509 1506 1504 1505 1505 1506 1507 1508 1508 1510 1514 1515 1518 1519 1522 1523 1526 1528 1529 1530 1532 1533 1534 1534 1535 1536 1537 1537 1537 1537 1537 1537 1536 1535 1535 1534 1533 1532 1532 1531 1531 1530 1529 1529 1529
1502 1505 1511 1511 1508 1505 1504 1505 1506 1507 1507 1508 1509 1508 1512 1512 1515 1519 1522 1524 1526 1529 1529 1530 1531 1531 1532 1533 1534 1534 1534 1535 1535 1535 1535 1534 1534 1534 1533 1533 1532 1531 1530 1529 1528 1527 1525 1524 1524
1503 1505 1509 1507 1507 1503 1504 1504 1505 1506 1507 1507 1507 1508 1508 1510 1513 1517 1521 1524 1527 1528 1529 1530 1531 1532 1531 1532 1533 1534 1534 1534 1534 1534 1534 1534 1533 1533 1532 1531 1530 1529 1528 1526 1525 1524 1523 1522 1520
1502 1506 1506 1505 1504 1503 1504 1504 1505 1506 1507 1507 1506 1505 1507 1511 1513 1517 1521 1524 1526 1527 1528 1529 1530 1531 1531 1532 1534 1533 1533 1533 1533 1532 1532 1532 1532 1531 1531 1530 1529 1527 1526 1525 1524 1522 1520 1519 1517
1504 1501 1503 1503 1502 1502 1502 1503 1505 1506 1506 1503 1504 1504 1506 1509 1513 1517 1520 1522 1525 1526 1528 1528 1529 1530 1531 1531 1532 1532 1533 1533 1533 1531 1530 1530 1530 1529 1529 1528 1528 1527 1526 1524 1522 1520 1518 1516 1514
1508 1502 1502 1501 1501 1502 1501 1501 1503 1503 1500 1499 1501 1503 1506 1509 1513 1516 1519 1521 1524 1525 1526 1527 1528 1529 1530 1531 1531 1531 1532 1531 1531 1530 1531 1530 1529 1528 1527 1526 1525 1524 1523 1522 1520 1518 1516 1514 1512
1507 1505 1503 1501 1499 1499 1500 1499 1498 1496 1496 1497 1498 1499 1503 1506 1510 1515 1518 1521 1523 1524 1525 1526 1527 1528 1529 1529 1530 1530 1530 1530 1530 1530 1530 1530 1529 1528 1526 1525 1524 1523 1522 1521 1519 1517 1514 1512 1509
1507 1505 1502 1499 1497 1497 1498 1499 1500 1494 1493 1494 1498 1499 1502 1505 1508 1512 1516 1519 1521 1522 1524 1525 1527 1528 1529 1529 1529 1530 1530 1529 1530 1530 1529 1528 1527 1526 1525 1523 1522 1521 1519 1518 1517 1515 1513 1510 1508
1505 1503 1500 1498 1497 1495 1495 1498 1495 1493 1493 1493 1496 1500 1503 1506 1509 1512 1515 1517 1520 1521 1522 1524 1525 1527 1528 1529 1529 1530 1529 1529 1528 1528 1528 1527 1525 1525 1523 1521 1520 1518 1517 1516 1515 1512 1510 1509 1506
1504 1505 1502 1497 1495 1496 1496 1493 1491 1490 1491 1495 1499 1500 1503 1506 1509 1511 1514 1516 1518 1520 1522 1523 1524 1525 1526 1527 1527 1527 1528 1528 1529 1528 1527 1526 1524 1523 1522 1520 1518 1516 1515 1514 1513 1511 1509 1506 1504
1505 1501 1506 1499 1496 1495 1495 1491 1488 1488 1490 1492 1494 1498 1501 1504 1507 1509 1512 1515 1517 1519 1520 1522 1523 1524 1524 1524 1525 1527 1527 1527 1527 1527 1527 1525 1523 1522 1521 1519 1517 1515 1513 1512 1511 1509 1507 1504 1502
1501 1502 1502 1502 1495 1494 1497 1492 1486 1487 1488 1489 1492 1493 1496 1499 1502 1506 1509 1512 1515 1517 1519 1520 1521 1522 1523 1523 1524 1524 1525 1525 1525 1526 1526 1524 1522 1521 1520 1518 1515 1514 1512 1510 1509 1507 1505 1503 1500
1499 1502 1501 1496 1494 1496 1490 1488 1484 1486 1488 1488 1488 1490 1491 1494 1498 1502 1506 1510 1513 1516 1518 1519 1520 1521 1521 1522 1523 1523 1524 1524 1524 1524 1523 1522 1520 1520 1518 1517 1515 1513 1511 1508 1506 1505 1503 1501 1497
1502 1502 1499 1495 1491 1492 1486 1483 1480 1482 1481 1480 1481 1484 1487 1491 1495 1498 1502 1507 1511 1514 1515 1517 1518 1518 1519 1520 1520 1521 1522 1522 1522 1522 1522 1521 1519 1518 1518 1516 1513 1511 1508 1507 1504 1503 1501 1499 1495
1497 1499 1497 1496 1491 1488 1487 1476 1477 1473 1476 1476 1478 1481 1485 1486 1490 1495 1499 1504 1509 1513 1514 1515 1516 1517 1518 1518 1518 1520 1521 1522 1522 1521 1521 1520 1518 1517 1515 1514 1513 1509 1507 1506 1503 1500 1500 1498 1495
1496 1492 1490 1491 1494 1491 1488 1476 1473 1470 1471 1474 1476 1478 1480 1484 1489 1493 1497 1502 1509 1511 1513 1514 1515 1516 1517 1517 1518 1518 1519 1519 1520 1520 1519 1517 1516 1516 1514 1513 1511 1508 1506 1504 1502 1499 1498 1497 1496
1493 1490 1490 1488 1488 1491 1486 1487 1466 1473 1470 1473 1475 1476 1479 1482 1485 1488 1493 1501 1506 1508 1510 1512 1514 1516 1516 1516 1517 1517 1517 1518 1518 1518 1518 1516 1515 1514 1512 1512 1510 1508 1505 1504 1501 1500 1498 1495 1495
1490 1488 1493 1495 1492 1491 1481 1481 1455 1467 1470 1473 1476 1476 1477 1479 1482 1487 1493 1500 1503 1505 1506 1510 1513 1513 1514 1515 1516 1516 1516 1517 1517 1517 1518 1517 1515 1513 1512 1512 1510 1507 1505 1505 1502 1500 1498 1495 1493
1489 1493 1495 1492 1497 1485 1486 1484 1460 1470 1472 1473 1474 1476 1477 1479 1482 1486 1491 1495 1499 1501 1505 1510 1511 1513 1512 1513 1514 1515 1516 1516 1516 1517 1517 1515 1514 1513 1512 1511 1510 1507 1506 1505 1502 1500 1498 1495 1493
1486 1489 1491 1492 1486 1482 1488 1477 1462 1471 1475 1475 1474 1474 1476 1478 1481 1485 1490 1494 1497 1499 1504 1507 1509 1510 1510 1512 1513 1514 1514 1514 1515 1516 1515 1514 1513 1514 1512 1511 1510 1508 1507 1505 1503 1501 1498 1496 1494
1485 1486 1476 1486 1483 1490 1474 1469 1467 1471 1472 1472 1472 1473 1474 1476 1478 1482 1487 1491 1494 1496 1501 1504 1506 1507 1509 1510 1511 1513 1514 1514 1514 1513 1512 1513 1514 1513 1512 1511 1510 1508 1507 1506 1504 1502 1500 1498 1496
1478 1477 1482 1485 1488 1486 1471 1475 1464 1465 1465 1469 1471 1471 1472 1474 1476 1480 1482 1486 1490 1494 1497 1500 1503 1505 1507 1509 1510 1512 1513 1513 1512 1511 1511 1513 1514 1513 1512 1511 1510 1510 1509 1508 1506 1504 1502 1500 1498
1479 1477 1479 1479 1487 1493 1486 1469 1471 1469 1468 1467 1467 1468 1469 1470 1472 1475 1478 1483 1487 1491 1494 1496 1499 1501 1503 1505 1508 1510 1511 1511 1511 1511 1511 1513 1513 1513 1512 1512 1512 1511 1510 1509 1508 1506 1504 1503 1501
1479 1480 1480 1479 1484 1495 1498 1478 1467 1470 1469 1467 1466 1465 1466 1467 1469 1470 1475 1479 1483 1485 1490 1493 1496 1498 1501 1503 1506 1507 1509 1509 1509 1511 1512 1513 1513 1512 1512 1512 1512 1512 1512 1510 1509 1508 1506 1504 1502